Location: Croagnes
(43.9363°N, 5.3265°E)
Time: 21:32:12
(UTC+00:00)

Meteor 1-16 Rocket - Pass Details

Date: 27 September 2020
Orbit: 790 x 908 km, 81.2° (Epoch: 22 October)

Event Time Altitude Azimuth Distance (km) Brightness Sun altitude
Exits shadow 20:19:30 25° 25° (NNE) 1,758 5.8 -30.8°
Drops below altitude 10° 20:21:49 10° 18° (NNE) 2,579 6.8 -31.1°
Sets 20:24:17 0° 15° (NNE) 3,512 7.6 -31.5°
